Location: Fontevrault
(47.1823°N, 0.0493°E)
Time: 18:17:42
(UTC+00:00)

Cosmos 1459 Rocket - Pass Details

Date: 19 October 2021
Orbit: 936 x 1000 km, 83.0° (Epoch: 27 November)

Event Time Altitude Azimuth Distance (km) Brightness Sun altitude
Exits shadow 20:01:38 27° 18° (NNE) 1,781 5.3 -30.5°
Drops below altitude 10° 20:04:12 10° 13° (NNE) 2,696 6.4 -30.9°
Sets 20:06:42 0° 11° (NNE) 3,638 7.1 -31.3°
